Theta_e
353 353 354 355 356 360 361 358 352 351 355 349 345 348 348 348 350 349 352 349 348 350 347 348 347 346 346 347 350 350 350 352 353 351 350 348 346 349 350 349 349 349 350 349 349 349 349 349 348 348 348 348 347 346 345 345 345 345 345 346 347 346 345 345 345 345 343 341 340 339 340 339 339 338 338 337 336 335 334 333 333 333 332 331 331 332 334 337 338 337 336 336 337 337 337 337 338
354 353 355 356 357 360 361 358 351 350 350 345 344 348 349 348 350 350 351 351 352 351 348 348 348 349 348 347 348 348 349 351 350 349 349 347 347 349 349 350 349 349 350 349 349 350 350 349 349 348 348 348 348 348 347 346 346 346 346 347 347 345 345 345 345 344 342 340 340 339 338 339 339 338 339 337 336 335 334 333 332 331 330 330 330 333 336 338 339 338 337 337 338 337 337 339 339
355 355 356 356 358 361 360 356 348 346 347 344 344 347 349 350 352 351 351 352 353 350 349 349 349 349 348 349 350 349 350 349 349 348 348 348 348 349 349 349 348 348 349 349 350 350 349 349 348 348 348 348 348 349 348 347 347 347 346 346 346 345 345 344 344 342 341 340 340 339 339 339 339 338 338 337 335 334 334 333 331 329 329 330 333 336 338 339 340 340 339 339 338 337 337 339 339
359 358 358 358 360 360 359 357 351 347 345 344 346 348 349 351 353 352 351 352 351 350 349 349 350 349 348 352 351 349 349 349 349 347 348 348 348 349 349 348 348 348 349 350 349 349 348 347 347 346 347 348 347 348 348 348 348 348 347 346 346 345 345 344 343 341 341 340 340 339 339 339 338 337 336 335 335 335 334 333 331 329 329 331 335 338 339 341 341 340 340 340 339 337 337 337 337
359 358 359 360 361 358 356 354 352 349 343 346 350 349 350 352 352 350 350 351 350 350 350 350 351 349 348 351 350 349 350 349 349 347 347 347 348 349 348 347 348 348 349 349 349 348 347 346 345 345 346 347 347 348 347 347 348 347 347 346 345 344 343 343 342 342 342 341 340 339 339 338 337 337 336 335 335 335 334 333 331 330 331 333 337 339 340 341 341 340 339 339 339 338 337 337 336
355 355 356 359 359 354 352 343 339 341 339 346 351 349 351 349 348 348 348 349 349 350 350 350 350 349 349 350 349 349 349 349 348 347 346 346 347 349 348 347 348 349 348 348 348 347 347 346 345 345 345 346 347 347 347 347 347 347 346 345 344 344 343 342 342 342 342 341 341 340 339 338 338 337 336 336 336 336 335 333 332 332 334 337 338 339 340 340 339 339 339 338 338 337 337 336 337
353 354 354 358 355 349 348 339 335 339 338 343 349 349 349 347 347 348 348 349 349 349 349 348 346 349 351 350 349 349 349 348 347 346 345 345 347 348 348 347 348 349 347 347 348 347 346 346 345 345 346 346 347 347 346 346 346 346 345 345 344 344 343 342 342 341 341 341 341 341 341 340 340 339 338 338 338 336 335 334 334 335 337 339 339 339 339 338 338 337 337 337 337 337 337 337 338
353 353 353 355 353 349 347 337 335 342 344 343 346 347 346 346 347 347 348 348 349 348 348 347 345 351 353 350 351 351 348 347 346 346 345 345 346 347 347 347 348 348 347 347 347 347 347 347 346 346 346 346 347 347 346 345 345 344 344 345 344 344 343 342 341 341 341 340 341 341 341 341 340 339 339 338 337 337 336 336 337 338 338 338 338 338 337 337 336 335 336 337 338 338 338 338 338
351 352 351 351 351 348 343 336 338 343 345 344 344 346 345 347 347 347 348 348 349 348 348 348 345 350 352 350 351 350 348 347 346 346 346 345 345 345 346 346 347 348 348 347 347 348 348 347 347 347 346 346 346 346 345 345 344 344 344 344 343 342 342 341 341 341 341 341 341 341 340 340 339 338 338 338 338 338 338 339 339 338 338 338 338 337 337 336 335 336 338 338 339 339 338 338 338
349 351 347 350 351 341 336 336 340 342 344 345 345 346 346 347 346 346 349 350 349 350 350 349 347 350 351 351 352 350 348 346 345 347 346 345 344 345 346 345 346 348 348 348 348 348 348 347 347 347 346 346 346 345 345 344 344 343 342 342 341 341 341 341 341 341 341 341 341 341 340 340 340 339 339 339 340 340 340 340 339 339 339 338 337 336 335 335 337 338 339 338 338 338 338 338 338
349 348 344 353 352 337 334 336 337 340 344 345 345 345 346 346 346 347 349 351 350 351 350 349 350 349 350 351 351 350 347 346 345 346 346 345 344 344 345 345 344 346 348 348 348 348 347 347 346 345 344 344 344 343 343 343 342 342 342 341 341 341 341 341 341 341 340 341 341 341 341 340 340 340 340 341 341 341 341 340 339 339 338 336 335 335 335 337 338 338 338 338 339 339 339 339 339
347 344 350 358 351 341 338 338 338 342 344 345 347 345 347 346 348 349 349 352 351 351 350 349 350 349 351 352 351 350 346 345 345 345 346 345 344 344 344 344 344 345 347 347 348 348 347 347 346 345 343 343 342 342 341 341 342 341 341 341 341 341 341 342 341 341 341 341 341 341 341 341 341 340 341 341 342 341 341 340 340 338 336 334 335 336 337 338 338 338 339 340 340 340 340 340 340
347 342 355 353 345 347 341 340 343 345 347 347 347 346 348 346 348 349 349 352 351 351 350 348 347 348 353 352 350 349 346 346 345 344 345 345 344 344 344 344 344 344 345 346 346 347 347 347 346 344 343 342 341 341 341 342 342 342 342 342 342 342 342 342 341 341 341 341 341 340 341 341 341 341 340 341 341 341 341 340 338 336 335 336 337 338 339 339 339 339 339 341 341 341 341 341 341
347 342 356 350 342 348 340 342 346 345 347 347 347 347 348 347 348 348 349 351 350 351 350 348 346 348 352 351 351 348 346 346 345 344 345 345 344 344 344 344 344 344 345 345 345 346 347 346 346 344 343 343 342 343 343 342 342 342 342 341 341 341 341 341 341 341 341 340 340 339 340 340 339 340 340 340 341 340 339 338 335 335 338 340 339 339 339 339 339 340 340 341 341 341 342 342 342
345 340 355 353 343 344 339 343 344 344 346 346 348 348 348 348 348 349 348 351 351 350 348 347 346 348 351 350 350 347 346 346 345 345 344 345 345 345 344 344 344 344 345 345 345 346 346 347 346 345 344 343 344 343 343 343 342 341 340 340 340 340 341 340 340 340 339 339 339 339 339 338 338 338 338 338 338 338 337 335 333 335 340 342 341 340 340 340 341 341 341 342 342 342 342 342 342
343 339 354 355 342 340 341 342 341 344 344 345 349 347 348 348 348 349 347 350 351 350 348 347 346 344 347 348 347 345 345 346 345 345 344 345 345 345 345 344 345 344 345 346 346 347 347 347 346 345 344 344 344 343 343 343 342 340 339 339 339 339 339 339 339 339 339 339 339 340 339 339 338 338 338 337 336 337 337 337 335 336 340 342 342 342 341 342 343 343 343 343 343 342 342 342 341
340 339 352 351 342 340 341 341 341 344 344 345 347 346 348 347 348 349 347 349 350 349 347 347 347 344 345 347 346 345 345 345 345 345 345 345 344 345 345 345 345 345 346 347 347 348 347 347 346 345 345 344 343 342 343 342 341 340 339 339 339 339 339 339 339 339 339 340 340 340 339 339 339 339 340 340 338 340 341 339 339 338 339 340 341 342 342 343 343 343 343 343 343 342 342 342 339
341 346 351 345 345 344 341 341 338 341 345 344 345 346 347 347 348 348 348 349 348 348 347 347 349 346 346 347 346 346 346 345 345 345 345 345 344 345 345 346 346 346 347 347 348 348 346 346 346 346 345 344 342 342 343 342 341 340 340 340 340 340 340 339 339 340 340 340 341 340 340 340 340 339 341 341 339 341 341 340 341 341 341 342 342 342 343 344 343 343 343 342 342 342 342 341 337
342 348 349 349 351 344 338 339 336 339 344 343 345 347 346 347 348 347 347 348 347 348 348 348 349 349 349 347 347 348 347 346 344 344 344 344 344 344 345 346 346 347 347 346 347 347 345 344 346 346 345 344 343 343 343 342 342 341 340 340 340 340 340 341 340 340 340 340 340 341 340 340 339 340 341 342 341 341 341 340 341 341 342 343 343 343 344 345 342 342 343 341 341 342 341 339 336
341 341 348 354 350 340 338 337 337 340 342 343 345 346 345 347 347 346 346 346 347 349 348 348 350 352 351 348 347 349 349 348 346 344 344 344 344 343 343 345 344 345 345 345 346 345 345 344 345 346 345 344 343 343 343 342 342 341 340 340 341 340 340 340 340 340 339 339 339 339 339 338 339 341 342 341 341 341 340 339 340 341 342 343 343 344 344 345 344 343 343 341 341 341 339 337 335
338 340 349 350 341 340 340 337 337 340 342 344 345 345 346 347 346 345 346 348 349 348 346 346 348 351 351 349 348 350 351 350 349 347 345 344 344 343 342 343 342 342 343 343 344 344 344 344 345 345 345 344 343 344 344 342 343 342 340 339 340 339 339 339 338 338 338 338 338 338 339 340 340 340 340 340 340 340 340 340 340 342 343 343 344 343 344 345 345 345 343 342 341 340 339 337 335
337 339 342 339 337 339 340 338 338 340 343 345 344 346 347 346 345 344 346 350 350 345 344 343 343 347 349 349 349 350 351 351 351 349 347 344 343 342 341 341 341 341 341 341 342 342 343 344 344 345 344 344 344 344 344 342 342 342 339 339 339 338 338 338 337 337 338 338 340 341 341 341 341 340 340 339 340 342 342 341 342 343 343 344 345 344 345 345 344 342 341 342 341 340 339 338 336
337 337 334 334 337 339 339 338 339 341 343 343 343 346 346 344 345 345 345 347 347 342 343 345 341 344 348 349 350 351 352 351 351 350 346 344 341 340 340 341 341 341 341 341 340 341 342 343 343 344 344 343 344 343 343 342 341 340 340 339 339 338 338 337 337 337 338 341 342 342 342 342 342 341 340 340 341 342 343 343 343 344 343 344 344 343 343 343 341 339 338 340 341 340 339 338 337
335 336 333 334 337 338 339 339 340 342 343 343 344 345 344 345 346 345 345 346 346 344 345 346 344 345 348 349 350 351 351 350 349 348 345 343 341 339 339 341 341 341 341 340 340 340 341 341 342 343 343 343 343 342 342 341 340 340 340 339 339 339 339 338 338 339 339 342 343 343 342 342 342 341 341 341 342 343 344 344 344 343 342 342 342 342 341 341 340 338 338 338 339 340 341 341 340
333 334 331 332 336 338 339 339 340 341 342 343 344 344 344 345 346 345 346 347 347 346 346 346 346 347 348 349 350 350 350 350 349 348 347 345 342 340 340 341 341 341 341 340 340 340 340 340 341 342 342 342 341 342 341 340 340 340 340 340 340 339 340 340 340 341 342 343 344 344 343 343 342 342 342 342 342 342 343 344 343 342 341 341 341 341 341 341 339 338 338 338 339 341 341 341 341
329 329 330 333 336 338 339 339 340 340 341 344 344 344 345 344 345 346 346 348 348 348 348 348 347 347 348 349 349 349 349 349 349 348 348 347 344 341 340 341 341 341 341 341 340 340 340 340 340 341 341 341 341 340 340 340 340 339 340 340 341 341 341 342 342 343 344 345 345 344 344 343 343 344 343 343 342 342 342 343 343 342 341 340 339 339 340 340 338 338 339 340 341 342 342 342 341
326 329 333 335 338 339 339 339 340 341 342 344 345 346 346 344 348 350 348 349 349 349 349 349 348 348 349 349 349 349 348 348 348 348 349 349 346 341 341 341 341 341 341 341 341 340 340 340 340 340 340 341 340 340 340 340 340 340 340 341 342 343 344 344 345 345 345 344 344 344 344 344 345 345 344 343 341 341 342 342 342 341 340 339 338 337 338 339 339 340 342 343 343 343 344 344 343
327 335 338 338 339 339 340 340 341 343 344 343 345 347 346 345 349 352 348 349 349 349 349 350 350 349 350 350 350 350 349 349 349 349 350 349 346 343 342 342 341 341 341 341 341 341 341 341 341 341 341 342 341 341 341 342 342 342 342 342 343 345 345 346 346 346 345 344 344 344 344 344 345 346 346 344 342 342 342 341 340 339 338 338 338 339 341 342 342 343 344 345 344 344 344 344 345
331 339 343 343 342 342 341 342 343 344 345 344 345 348 349 348 350 350 349 349 350 349 350 350 350 351 351 351 351 351 350 350 351 350 350 349 348 347 346 343 341 340 340 341 341 342 342 342 343 342 343 343 343 342 343 343 344 344 344 343 344 346 346 346 346 345 344 344 344 344 344 344 345 345 345 345 345 345 345 344 343 343 343 343 342 343 343 343 343 344 344 344 344 343 342 344 345
338 341 344 347 345 344 342 341 344 345 345 344 345 350 351 350 348 348 349 350 350 350 351 351 351 351 351 352 352 351 350 350 351 350 349 350 350 350 348 344 342 341 340 341 342 342 343 343 343 343 343 343 343 343 344 344 344 345 345 344 345 347 347 347 345 345 344 344 344 344 344 344 345 344 345 346 347 347 347 347 347 347 346 345 345 344 343 342 341 340 339 337 337 336 336 339 341
343 342 343 348 343 342 344 341 344 347 346 345 346 352 353 351 348 348 350 350 350 350 351 351 351 351 351 352 352 351 351 350 350 349 349 350 350 350 349 345 344 343 341 342 343 344 344 344 344 344 344 343 342 342 343 345 345 346 346 346 346 347 347 347 346 345 345 345 344 344 344 345 345 345 347 347 347 348 347 347 347 347 345 344 342 340 337 335 334 333 331 331 331 330 330 331 335
342 342 341 344 340 342 345 342 344 347 347 344 343 351 355 351 348 349 350 350 350 350 350 351 351 351 351 351 352 351 350 350 350 349 349 350 350 349 348 346 345 344 344 344 344 345 345 346 345 345 345 344 343 342 343 345 346 347 347 347 346 347 347 347 346 346 345 345 345 345 345 345 346 347 348 348 347 348 348 348 348 345 342 339 336 334 331 329 328 328 328 329 330 331 331 331 334
339 342 340 340 341 343 345 343 342 344 347 345 342 351 358 353 348 348 350 350 349 350 350 351 351 351 352 351 351 351 351 351 350 350 350 350 350 348 346 346 346 346 345 345 344 344 345 346 346 346 345 344 344 343 343 345 345 346 347 347 346 347 347 347 346 346 346 347 347 346 346 346 347 347 348 349 348 348 348 347 345 340 335 333 331 330 329 328 327 328 330 332 333 333 333 333 336
337 340 341 339 340 341 343 344 342 342 346 347 346 353 358 352 349 348 349 350 349 350 350 350 350 350 352 351 351 351 351 351 351 349 349 349 348 346 346 346 346 347 346 346 345 344 344 345 345 345 344 344 344 343 344 344 344 345 346 346 346 347 347 347 347 347 348 349 348 347 348 347 348 348 348 349 348 347 345 342 339 336 332 331 330 330 329 328 328 329 331 333 334 334 335 336 337
335 336 339 336 338 341 342 344 343 344 346 347 346 351 354 350 348 348 349 350 349 349 349 349 350 350 351 351 351 352 351 351 349 347 346 347 347 346 347 347 347 348 347 347 346 345 345 344 345 345 345 345 344 344 344 345 345 345 346 346 346 348 347 347 348 348 349 349 348 348 349 348 349 348 347 347 346 344 341 338 337 334 332 331 330 329 327 326 326 327 329 332 333 334 334 336 337
336 336 339 335 336 340 342 344 343 343 346 348 346 348 353 351 348 348 348 349 349 349 349 349 349 349 350 350 351 351 351 349 347 346 346 346 347 347 347 347 348 348 347 347 347 347 346 345 346 347 346 346 346 346 346 347 347 346 345 346 346 346 346 347 347 348 348 349 349 348 348 348 348 346 345 345 344 341 337 336 335 332 331 329 326 325 323 324 326 327 329 331 331 331 332 335 337
336 336 337 335 337 339 343 345 343 343 346 347 345 347 351 350 348 348 347 348 348 347 347 348 348 348 349 349 350 350 350 347 346 347 347 347 348 348 348 348 348 348 348 348 348 348 347 347 347 346 346 346 347 347 347 347 346 345 345 344 345 345 345 346 347 348 348 349 348 347 347 348 346 345 343 342 340 337 335 334 332 330 328 325 323 323 322 324 328 329 330 331 331 331 332 335 337
335 335 334 333 335 338 341 342 341 343 345 345 346 350 350 348 348 348 347 347 347 347 346 346 347 347 348 348 348 349 349 347 347 347 347 348 348 348 348 349 349 348 348 348 348 348 348 348 347 346 345 345 346 347 347 347 345 345 344 344 345 345 346 346 346 348 348 348 348 346 346 346 344 343 341 339 337 335 334 332 330 330 327 325 325 325 324 325 329 331 332 333 334 334 335 336 337
333 334 333 330 333 336 337 339 343 342 343 346 348 349 349 346 347 347 346 347 346 346 346 345 346 346 346 347 347 348 348 348 348 348 348 348 348 348 349 348 348 348 348 347 347 348 348 348 347 346 345 345 345 346 347 346 345 345 345 346 346 347 347 347 347 348 348 348 347 345 344 343 342 340 338 337 335 335 334 332 333 332 329 330 329 326 327 329 331 333 334 335 335 335 337 337 337
332 334 333 331 334 334 333 337 343 343 343 347 348 352 354 349 347 348 346 346 347 346 346 345 345 345 345 346 346 347 347 347 348 348 348 348 348 348 348 348 348 347 348 348 347 348 348 347 347 346 346 345 345 346 346 345 346 347 347 347 348 349 349 349 349 349 348 347 346 344 342 341 340 338 337 336 335 335 335 335 335 332 332 334 330 325 329 332 330 331 332 333 334 334 336 336 337
330 333 333 335 336 334 335 339 341 342 341 344 348 350 354 353 348 348 346 344 346 346 345 345 344 345 345 345 345 346 346 346 347 347 348 348 348 348 348 347 347 347 347 347 347 348 348 348 347 347 347 346 345 345 345 346 347 348 348 349 349 350 350 349 349 347 346 346 345 343 341 340 339 337 335 335 334 334 335 336 335 335 335 333 325 324 329 330 327 327 328 330 332 333 333 334 335
327 329 333 337 338 336 339 341 339 338 337 342 346 341 348 357 350 347 347 345 346 345 344 345 344 344 345 345 345 345 345 346 345 346 346 347 348 347 347 347 347 347 347 347 347 347 348 347 346 347 347 347 347 347 347 347 348 348 349 349 348 349 348 347 345 345 345 344 343 341 340 339 336 334 334 333 333 333 334 334 334 335 332 326 323 327 329 327 325 325 326 328 328 329 330 330 331
326 331 332 333 337 337 339 340 338 336 336 341 343 338 345 355 349 345 347 346 346 345 343 343 344 345 345 345 345 345 345 345 345 345 346 346 347 347 346 346 347 347 347 347 348 347 347 347 347 346 347 348 348 348 348 347 348 348 348 348 347 346 345 344 343 343 344 344 342 340 338 336 334 333 333 332 332 331 332 332 331 329 325 323 326 329 327 325 324 323 325 326 326 327 327 327 328
330 335 332 331 335 337 338 337 335 338 340 341 342 341 341 345 347 346 347 347 346 346 345 343 343 344 346 346 345 346 345 345 345 345 345 346 346 347 347 346 347 347 347 347 347 347 347 347 347 346 347 349 349 349 348 347 347 347 347 346 345 344 343 342 343 343 343 341 340 338 336 335 334 333 332 330 329 328 328 327 324 322 322 325 328 328 325 324 323 323 325 325 327 327 328 328 328
336 335 330 329 330 334 338 336 334 338 339 337 342 341 336 342 352 350 345 347 347 346 345 343 343 342 345 346 346 346 346 345 345 345 345 345 346 348 347 347 348 348 348 348 348 347 347 347 347 347 348 349 350 348 347 346 346 345 345 345 343 342 342 342 344 344 342 340 338 335 333 333 333 332 330 327 325 323 322 322 320 320 324 326 326 325 324 323 324 325 326 327 328 328 327 327 327
333 329 328 331 332 335 336 335 336 337 334 334 339 339 333 340 353 349 344 346 345 345 345 342 342 342 343 345 346 347 347 346 346 346 346 346 347 348 347 347 348 347 348 348 347 347 347 348 347 347 349 350 349 347 346 345 345 345 344 343 342 341 341 342 343 342 340 339 336 332 331 332 332 331 328 325 323 321 320 322 322 322 325 326 325 324 325 325 326 327 328 329 328 327 326 326 327
327 327 329 330 336 343 347 348 341 333 333 336 336 337 333 336 346 346 344 347 346 345 345 343 341 342 342 344 345 346 347 347 346 346 346 347 348 348 348 348 348 347 348 348 347 347 347 347 347 348 349 350 348 346 345 344 344 343 341 340 339 337 338 341 339 335 333 333 330 329 330 332 331 329 327 325 323 321 321 322 322 323 325 325 324 325 325 326 327 328 328 328 326 326 326 326 327
326 333 332 327 333 340 343 345 337 329 335 342 338 337 334 332 340 347 344 345 345 344 345 345 343 341 341 342 344 346 346 347 347 346 347 347 348 348 348 348 348 347 347 348 348 347 348 348 349 349 350 350 347 344 343 343 343 342 338 335 334 333 334 336 333 327 326 326 324 325 328 329 327 325 324 323 322 321 321 321 321 323 325 325 325 325 325 326 326 326 327 326 325 326 326 326 326
327 333 329 323 327 327 327 333 334 331 336 340 337 336 335 334 340 346 343 342 343 343 343 343 342 341 341 342 343 344 346 346 347 347 347 347 348 348 348 348 348 348 347 348 348 347 348 348 350 351 350 347 345 343 342 343 342 338 334 331 329 329 330 330 326 323 324 323 322 323 324 323 321 320 319 320 320 320 320 320 320 323 324 325 325 325 325 325 325 325 326 325 325 325 326 326 325
325 329 326 323 324 321 323 331 332 332 334 333 333 336 337 338 343 346 344 340 340 340 340 341 341 341 341 341 343 343 345 346 346 347 346 347 348 348 348 348 348 348 348 348 347 348 348 349 351 351 349 345 343 342 341 340 338 334 330 327 327 327 327 325 322 321 322 322 321 321 320 318 317 317 317 319 321 322 321 320 322 323 324 325 325 325 325 325 324 325 325 325 325 325 325 325 324
324 330 329 325 327 325 324 329 329 330 331 327 329 339 339 335 341 348 341 335 337 337 339 341 340 341 341 341 342 343 344 345 346 347 347 347 348 347 347 348 348 348 348 348 348 348 349 350 352 350 347 343 341 340 340 338 333 330 328 327 326 327 325 323 320 320 321 320 319 317 316 316 316 316 317 319 321 321 320 321 322 323 324 325 325 325 324 324 323 324 324 324 324 324 325 324 324
323 330 328 323 330 330 325 329 336 335 331 328 330 341 345 337 339 346 341 337 338 336 337 339 339 340 340 340 342 342 344 345 345 346 347 347 347 347 347 347 348 348 348 348 348 348 350 351 351 349 344 341 339 339 338 334 330 328 327 326 326 326 325 323 320 320 320 318 317 316 315 315 315 316 318 318 319 319 320 321 322 323 324 325 325 324 324 323 323 322 323 323 323 323 324 324 324
324 325 324 325 329 331 327 325 331 330 326 330 331 332 336 333 338 348 345 343 343 338 338 337 337 339 339 340 341 342 343 344 345 346 347 347 347 347 348 348 348 348 348 348 348 348 350 350 350 348 344 340 338 336 334 331 328 328 327 326 325 325 324 322 320 319 319 317 316 316 315 315 316 316 317 318 317 317 319 322 322 323 324 325 325 324 324 323 323 323 322 322 322 322 323 324 324
327 322 324 328 325 331 336 327 327 327 325 330 329 326 327 327 338 354 347 343 345 342 341 337 336 338 338 340 341 341 343 343 345 346 346 347 348 347 348 347 347 347 346 347 348 348 349 350 350 347 344 340 335 333 330 327 326 327 326 325 324 324 323 322 321 320 319 317 316 315 316 316 316 317 317 317 317 317 320 322 322 323 324 324 323 322 322 321 321 321 321 321 321 322 322 323 324
326 325 326 327 322 327 331 326 326 325 325 330 329 327 329 329 338 350 342 342 346 344 343 340 339 338 337 339 340 340 343 343 344 346 346 347 348 348 348 348 347 347 346 347 348 349 350 350 349 347 343 339 335 332 329 326 325 325 324 323 323 324 324 323 323 323 320 317 315 315 316 316 316 317 317 317 318 319 320 320 322 322 320 319 320 320 321 321 321 322 322 322 323 323 323 324 325
324 325 324 326 327 328 326 325 327 325 327 332 328 324 331 335 339 343 340 345 346 342 345 343 339 337 337 338 340 339 342 343 344 345 346 347 347 347 348 347 347 346 346 347 348 348 349 348 348 347 344 341 337 333 328 325 324 324 324 324 325 326 326 325 325 323 320 317 316 316 316 316 317 317 317 318 319 319 319 320 322 320 318 320 323 324 325 326 326 327 326 326 327 327 326 326 326
322 322 322 322 325 327 326 325 329 329 331 334 328 325 334 344 344 343 341 346 345 342 346 344 337 335 337 338 339 340 341 342 343 344 345 346 347 348 348 347 347 347 347 348 349 349 348 348 347 346 344 342 337 332 328 325 325 325 325 325 326 328 328 327 325 323 320 318 316 316 316 316 317 317 318 319 319 319 321 324 324 321 321 325 327 327 328 328 328 329 329 329 329 329 328 328 327
323 322 323 323 324 324 322 322 326 328 328 333 331 324 332 345 345 342 341 344 343 340 342 343 336 333 336 338 338 339 341 341 342 343 343 345 346 348 348 348 348 349 349 349 348 349 349 348 346 345 344 342 336 332 329 327 326 325 324 325 328 331 331 328 325 323 321 319 317 316 316 317 317 317 319 321 320 321 325 327 326 325 325 327 328 328 328 328 328 329 329 329 329 329 329 329 328
Wind_Speed
11 12 10 9 8 6 1 2 1 2 3 3 2 1 1 2 3 3 3 4 3 2 6 10 12 10 6 7 9 10 10 3 1 1 4 10 15 14 16 18 19 20 20 21 22 22 21 21 22 23 24 26 26 26 25 25 25 24 25 24 24 24 21 20 20 19 19 19 19 18 18 17 16 16 14 13 13 12 11 11 10 10 9 8 7 6 6 6 6 7 7 7 8 8 8 8 8
11 11 10 9 8 5 1 2 2 2 4 2 3 0 1 2 4 4 4 3 3 7 14 17 16 13 12 13 11 8 10 7 2 8 14 17 18 16 18 20 20 22 21 22 22 22 21 21 21 22 23 23 24 25 25 26 26 24 23 24 23 22 21 20 19 19 18 18 17 17 17 16 15 14 14 13 12 12 11 11 10 9 8 7 6 6 6 6 7 7 7 7 8 8 7 7 8
10 10 9 9 8 4 1 2 2 3 4 2 2 2 1 3 4 3 3 5 11 17 18 17 15 11 11 11 7 5 5 6 11 19 21 19 19 20 21 21 22 23 23 23 22 22 21 20 21 22 22 21 22 22 23 23 24 23 22 22 22 21 21 20 19 18 17 17 16 16 15 15 14 14 13 13 12 11 10 10 10 9 7 6 6 6 6 6 7 7 6 6 7 7 7 7 7
10 9 8 8 7 3 1 2 2 4 4 3 1 2 1 3 5 5 7 12 17 19 14 11 8 6 9 9 6 7 7 7 14 22 22 20 21 22 22 22 23 23 23 22 21 21 21 21 22 23 22 21 21 21 21 21 22 21 21 20 20 20 20 19 18 17 16 16 15 15 14 14 14 14 13 12 12 11 10 9 9 8 6 6 6 6 6 6 6 6 6 6 6 6 7 7 7
11 9 9 8 4 1 1 2 2 3 3 4 2 3 2 4 7 7 10 13 12 11 11 8 5 6 12 8 4 5 7 10 15 22 23 22 22 23 23 23 23 23 23 22 22 21 21 21 22 22 22 22 21 20 20 20 20 20 20 19 18 18 18 18 17 16 15 15 15 14 14 14 14 13 12 12 11 10 9 9 8 6 6 6 6 6 5 5 5 5 5 5 6 6 6 7 7
11 10 9 8 2 1 1 3 2 2 2 4 4 3 5 5 7 10 13 12 9 9 10 10 9 10 12 10 10 9 8 11 17 23 25 25 23 24 24 23 23 23 24 24 23 23 22 21 22 22 22 22 21 19 20 20 20 19 19 18 18 17 17 16 16 15 14 13 13 13 13 13 13 12 11 11 10 9 8 7 7 6 6 6 6 5 4 4 4 5 5 5 5 5 6 7 7
8 9 7 5 2 1 2 4 3 2 1 2 5 6 7 6 10 13 12 9 8 8 9 13 15 13 8 6 11 10 7 12 21 24 25 26 25 24 24 24 23 23 24 24 24 24 23 22 22 21 21 21 20 19 19 20 19 18 18 17 17 16 16 15 13 13 12 12 11 11 12 12 11 11 10 10 9 8 8 7 6 6 7 6 5 4 4 4 4 4 4 5 5 6 6 6 6
6 6 4 2 0 2 3 3 1 1 2 2 4 8 9 10 14 10 6 6 6 7 11 14 15 12 4 5 8 7 9 15 21 24 26 26 25 24 24 24 24 25 25 24 25 23 23 22 21 20 20 20 20 19 18 19 18 17 17 16 15 15 14 14 13 12 12 11 11 11 11 10 10 10 9 9 8 8 7 7 7 6 6 5 4 3 3 3 3 4 4 5 6 6 6 6 7
7 5 3 2 2 3 3 2 1 1 2 4 5 8 12 14 13 9 7 7 8 12 12 10 10 10 7 10 11 7 10 16 22 24 26 26 25 25 24 24 25 26 26 25 25 23 22 22 21 20 19 20 19 19 18 18 17 17 16 15 15 14 14 13 13 13 12 12 11 11 11 10 10 9 9 9 8 7 7 7 6 6 4 3 2 2 2 2 3 4 4 6 6 7 7 7 7
6 4 1 1 2 4 3 2 1 1 2 5 5 10 14 13 12 10 10 9 11 13 9 7 8 12 12 11 10 8 12 19 24 25 25 25 25 25 24 24 25 27 26 26 24 23 22 21 21 20 19 19 19 19 18 18 17 16 16 15 15 14 14 13 13 13 12 12 11 11 11 10 10 10 9 9 8 8 7 6 6 4 3 2 1 1 1 2 2 3 5 6 6 7 7 7 7
3 2 1 3 4 3 3 1 2 2 3 5 5 11 13 14 14 11 12 12 11 12 10 9 10 17 15 9 8 8 14 21 25 26 26 25 25 25 25 25 25 26 26 25 24 23 23 22 21 20 19 19 19 19 18 18 17 16 15 15 14 14 14 13 12 12 12 12 11 11 10 10 10 9 9 8 8 7 6 6 5 3 2 1 1 0 1 2 2 3 5 6 6 7 7 7 7
1 1 2 3 3 3 4 3 4 4 4 4 5 9 13 17 14 9 12 12 11 12 11 9 14 19 10 5 8 11 17 22 24 26 26 25 26 26 26 25 25 26 26 24 24 23 23 22 21 20 19 19 18 18 18 17 16 15 14 14 13 13 13 12 12 12 12 12 11 10 10 9 8 8 7 7 6 6 5 5 4 3 2 1 1 2 2 3 4 4 5 6 6 7 7 7 8
3 2 4 3 2 3 4 4 4 5 3 4 5 9 16 14 11 14 15 12 12 9 5 10 20 17 7 6 12 15 20 23 24 26 26 26 26 26 26 25 25 25 24 24 23 23 22 21 20 20 19 18 18 17 17 16 15 14 13 12 12 12 12 12 12 12 11 11 10 9 8 7 7 7 6 6 6 5 5 4 3 2 2 2 2 3 4 4 5 5 6 6 7 7 7 8 8
5 3 3 3 2 4 4 4 4 5 3 4 6 12 15 8 11 21 20 14 7 5 10 17 21 14 9 10 12 19 23 24 26 25 26 25 25 25 25 25 25 25 23 23 23 22 21 20 20 19 19 18 17 17 16 15 14 13 12 12 12 12 11 11 11 10 10 9 9 8 7 7 7 7 6 6 5 5 5 5 4 3 2 3 3 4 5 6 6 6 6 6 7 7 8 8 8
5 3 3 4 3 3 2 3 6 6 4 4 9 14 10 6 14 18 18 14 3 11 19 19 16 7 10 11 13 26 26 25 27 26 27 25 25 25 25 25 25 24 23 23 22 21 21 20 20 19 19 18 17 16 16 15 13 12 12 12 11 11 10 10 10 9 9 9 8 8 8 7 7 7 6 6 6 5 5 5 4 3 4 4 4 5 6 6 7 7 7 7 7 7 7 7 7
7 3 3 3 3 3 3 3 6 5 3 5 12 15 8 8 16 11 9 12 14 21 15 15 12 2 13 16 18 32 28 27 27 26 28 26 26 25 25 25 25 24 22 22 21 21 20 19 19 19 19 18 17 16 15 14 13 12 11 11 11 11 11 10 10 9 9 9 9 8 8 8 7 7 6 6 6 6 6 5 5 4 5 5 6 7 7 7 7 8 8 7 7 7 7 6 6
7 3 2 2 3 4 5 6 6 5 5 8 14 15 9 7 12 8 6 13 23 22 7 15 8 3 16 18 22 34 28 28 27 27 28 26 27 25 25 25 24 24 22 22 21 21 20 20 20 19 19 17 17 16 15 14 13 12 12 12 12 11 11 11 11 10 10 10 9 9 8 7 7 6 6 5 5 6 5 5 5 5 6 6 7 8 8 8 8 8 7 8 8 8 9 8 7
5 2 2 2 4 4 7 8 7 6 8 11 15 17 14 10 12 13 11 12 19 14 7 15 5 2 18 17 27 34 28 30 28 29 28 27 28 26 27 25 25 24 22 22 21 21 21 21 20 19 19 18 17 16 15 15 14 13 13 13 13 12 12 12 12 11 11 10 9 8 7 6 6 6 6 5 6 6 6 5 6 6 6 7 8 8 9 8 8 7 7 8 8 8 9 8 8
4 3 2 3 5 4 6 11 10 10 13 14 16 19 15 13 18 18 12 11 13 10 8 12 9 14 17 18 31 32 29 32 29 31 29 29 29 27 28 26 26 25 24 23 22 21 21 22 20 20 19 18 18 17 16 15 15 14 13 13 13 13 13 12 12 11 11 10 9 8 7 6 6 6 6 6 6 6 6 6 6 7 7 7 8 9 9 8 6 6 6 7 8 7 8 7 7
4 3 1 5 6 3 6 17 16 18 22 16 15 18 12 14 22 19 14 12 9 8 12 13 16 21 20 24 33 30 31 31 30 31 29 29 28 27 28 27 28 26 25 25 23 23 23 23 21 20 20 19 18 17 17 16 16 15 14 14 13 13 13 12 12 11 10 9 8 7 7 7 7 7 7 7 6 6 6 6 6 7 7 7 7 8 8 6 5 5 6 7 7 7 7 6 6
3 4 4 5 6 3 8 20 20 22 28 22 19 16 10 15 20 19 19 13 3 10 20 23 23 26 27 31 33 31 32 29 28 29 28 29 27 27 26 26 27 25 25 25 24 24 24 23 22 21 20 19 19 18 17 17 17 15 15 14 13 13 12 12 11 10 10 9 8 7 7 7 7 7 6 7 6 6 6 7 7 7 7 6 6 6 5 5 4 5 6 6 7 6 6 5 5
2 4 6 5 7 5 10 22 23 24 27 23 19 15 15 18 16 22 25 12 8 19 26 27 28 31 33 35 34 32 32 30 28 27 28 28 27 27 24 24 24 23 24 24 24 24 23 23 22 22 20 20 19 18 18 17 17 15 14 14 13 13 12 11 10 10 9 8 8 7 7 7 7 6 7 7 6 6 6 7 7 7 7 5 6 6 5 4 4 4 5 5 6 5 5 5 5
3 5 5 8 11 7 13 22 24 28 25 20 20 19 21 18 11 23 27 8 11 24 25 26 29 32 35 35 34 33 33 32 30 28 28 29 28 27 25 24 23 22 23 22 22 22 22 22 22 22 21 20 20 19 18 18 17 15 14 13 13 12 11 11 10 9 8 8 8 7 7 6 7 7 7 7 7 7 6 7 7 7 7 6 7 7 5 5 5 6 5 5 6 6 5 5 6
5 4 4 9 15 12 19 26 27 31 29 24 24 22 23 18 11 21 22 4 5 21 24 26 30 32 35 35 35 35 34 32 30 28 27 28 27 26 25 24 22 21 21 21 21 21 21 21 21 21 20 20 19 19 19 18 17 15 15 14 13 12 11 10 9 8 8 8 8 8 7 7 7 7 7 7 7 8 7 7 8 8 7 6 7 7 7 7 8 8 7 7 8 8 7 7 8
5 5 6 7 13 16 24 28 29 29 26 26 25 20 20 18 16 19 16 4 6 22 25 27 32 33 35 35 35 35 34 32 29 28 26 26 25 25 25 23 22 21 21 21 21 21 21 20 21 20 20 20 19 19 18 18 17 16 15 14 13 12 11 10 9 9 9 9 9 8 8 7 8 8 8 7 8 8 7 8 8 8 7 7 8 9 10 11 11 11 11 10 10 10 9 9 9
3 6 6 6 11 17 26 27 27 27 23 25 20 12 13 13 14 12 8 7 15 24 26 29 33 35 35 35 35 34 33 32 30 28 25 24 25 26 25 24 23 22 22 21 21 21 20 20 20 20 19 19 19 19 18 17 17 16 15 14 13 12 11 10 10 10 10 10 9 8 8 8 8 8 8 8 9 8 8 9 10 10 9 10 11 12 12 13 14 14 13 12 12 12 11 10 11
7 4 2 8 14 18 25 25 23 24 22 27 20 7 10 15 12 5 8 15 20 25 28 31 34 35 36 35 35 34 33 31 29 28 25 25 26 26 26 25 24 23 22 22 22 21 20 21 20 19 19 19 19 19 18 17 16 16 14 13 13 13 12 11 11 11 11 11 9 9 9 9 9 9 9 9 9 9 9 10 11 11 12 13 14 14 15 15 14 14 14 13 13 13 12 11 12
4 8 9 7 15 15 20 21 21 19 13 23 22 8 9 13 6 5 16 23 24 29 30 31 34 35 35 35 34 33 32 31 29 29 27 27 27 26 26 25 24 23 23 23 22 21 21 21 20 20 19 19 19 19 18 17 16 16 15 15 14 13 13 13 12 12 11 10 10 10 10 10 9 9 9 9 9 9 9 10 11 12 13 14 15 16 16 16 15 14 14 14 14 14 13 12 12
7 16 9 5 10 9 12 14 19 17 8 20 24 10 3 8 5 8 22 27 27 30 31 31 33 33 34 34 34 33 32 31 31 30 27 26 25 25 25 23 23 23 23 22 21 22 21 21 20 19 19 20 19 19 18 17 17 16 15 15 14 14 14 13 13 12 12 11 12 12 11 11 11 10 10 9 10 10 10 11 11 11 12 14 15 16 16 15 14 14 13 13 14 14 14 12 12
10 8 6 6 7 4 8 9 15 12 12 27 22 4 6 9 7 14 25 29 29 28 28 30 30 31 33 33 34 34 33 33 32 30 27 26 24 24 23 22 22 21 22 22 22 22 21 20 20 20 20 20 20 19 18 17 17 16 16 15 15 15 15 14 14 13 12 12 13 13 12 12 11 11 10 10 11 12 12 12 12 11 12 13 14 13 13 13 13 13 13 13 14 14 15 14 14
6 4 5 4 4 6 6 6 11 8 15 27 12 1 8 8 8 19 28 31 31 28 27 29 29 30 32 32 34 34 34 34 32 30 27 26 24 23 23 22 22 21 22 23 23 22 21 21 21 21 21 20 20 20 19 18 17 17 16 15 15 16 15 15 14 13 12 12 12 13 13 12 11 10 11 12 14 14 15 14 14 13 11 11 12 11 12 13 12 13 13 13 13 13 14 15 15
2 4 3 1 4 5 5 5 10 8 15 20 4 1 6 5 10 23 29 31 31 29 27 29 29 30 31 32 33 34 35 34 32 29 27 26 25 24 24 22 22 21 22 23 23 23 22 22 21 22 22 21 21 20 20 19 18 17 17 16 16 15 16 15 14 13 12 11 11 12 12 12 12 12 12 14 16 17 17 16 15 12 9 10 11 12 13 14 14 14 14 14 13 12 13 13 13
2 2 5 5 4 4 3 4 10 9 12 14 5 2 3 2 11 23 27 30 29 26 26 29 29 30 31 32 33 33 34 33 33 31 29 28 27 25 24 23 21 19 19 20 22 23 23 23 23 23 22 21 21 20 20 19 18 18 17 17 16 15 16 15 13 12 12 12 12 11 12 13 14 14 16 17 17 17 15 12 12 10 10 12 13 14 15 15 15 14 13 12 11 12 12 12 11
3 1 4 5 4 6 5 3 9 8 8 11 5 3 3 2 13 22 26 29 28 24 25 28 28 29 30 32 33 33 34 34 35 33 30 30 28 26 25 23 22 20 18 18 19 21 21 21 22 23 22 21 21 20 20 19 19 18 18 17 16 16 16 14 13 13 13 12 12 12 13 15 16 15 16 16 13 13 10 9 11 10 11 12 12 13 14 14 14 12 11 11 11 11 11 10 9
6 4 5 3 3 6 8 7 10 10 8 8 5 4 5 3 12 21 25 29 27 25 27 29 29 29 30 31 33 33 34 36 34 32 30 30 30 28 27 25 24 22 20 19 18 18 19 20 21 21 22 22 21 20 19 19 19 19 19 18 17 16 15 14 14 13 13 13 13 14 15 16 16 13 13 13 11 10 9 9 11 11 11 11 11 13 13 13 13 12 12 11 11 11 11 10 9
9 6 6 6 6 7 11 7 7 12 10 8 8 7 6 7 11 16 24 29 27 25 26 27 28 29 30 30 32 34 35 36 34 31 30 31 31 30 29 27 26 24 22 21 19 19 19 20 20 21 21 22 21 21 20 20 20 20 20 19 18 17 15 14 14 14 14 14 14 14 14 15 13 11 12 12 10 10 10 11 12 12 12 12 12 13 13 13 12 12 11 11 11 11 11 11 10
9 6 5 6 6 7 9 5 2 10 10 8 8 5 5 10 12 15 23 25 22 22 21 23 27 29 30 31 32 35 37 37 33 32 32 31 31 30 30 29 28 27 25 24 23 21 20 20 21 21 20 21 22 22 22 21 21 20 20 20 18 16 15 15 15 15 15 15 14 14 14 14 13 12 12 12 12 12 13 14 14 14 14 13 12 12 11 10 10 9 9 10 11 11 11 11 12
6 6 6 5 6 6 5 2 2 8 7 5 4 4 5 8 10 14 19 19 19 24 24 25 28 29 31 32 33 36 37 36 34 35 35 33 33 32 31 32 31 30 28 27 25 23 21 20 20 20 20 22 23 23 22 22 21 20 19 17 16 15 15 15 15 15 15 14 15 15 15 14 13 12 13 13 14 15 15 16 15 15 15 13 12 11 9 8 7 8 8 9 9 9 10 11 12
4 4 5 5 5 3 1 1 4 6 5 3 3 4 4 3 6 11 16 19 23 29 30 28 30 29 30 33 35 36 36 35 36 37 37 36 35 34 33 33 33 32 29 27 26 23 22 21 20 19 20 21 22 22 22 21 20 18 17 15 14 14 15 15 15 15 15 16 17 17 16 15 14 13 14 14 14 15 16 16 15 16 16 14 14 12 7 5 6 7 7 8 8 8 8 8 10
3 4 5 4 4 5 5 5 6 5 2 1 5 2 4 1 4 7 16 22 21 24 27 26 29 31 34 37 38 37 36 37 38 38 39 38 37 36 36 35 34 33 32 30 28 26 25 23 21 20 19 20 21 21 21 20 18 16 16 15 15 15 15 16 17 17 18 19 18 17 16 14 14 14 15 15 15 16 17 16 16 16 16 16 16 11 6 5 6 6 7 7 7 7 6 6 6
3 5 6 4 5 8 5 4 6 4 1 2 7 3 5 3 6 7 12 17 16 17 21 23 27 31 35 35 35 36 38 39 39 39 40 40 40 39 37 36 35 35 35 33 30 28 26 24 22 20 19 19 20 20 19 18 17 17 18 18 18 18 18 18 19 19 20 20 19 17 15 15 15 15 15 16 16 16 17 17 17 16 17 18 15 9 7 7 7 8 7 7 7 7 7 6 5
4 6 8 8 8 8 6 9 8 4 3 3 5 2 6 4 8 10 8 10 13 14 17 22 27 30 31 31 32 35 37 38 39 39 39 39 40 39 38 37 37 37 35 33 30 28 26 24 22 21 20 20 20 20 19 19 19 19 20 21 21 22 21 21 20 20 20 19 18 17 16 16 16 16 16 17 17 17 17 18 17 18 18 16 10 7 8 8 9 9 8 7 7 7 7 7 6
3 6 9 10 9 8 9 12 9 5 5 5 6 6 5 4 7 11 9 9 12 12 13 19 26 30 31 32 34 36 37 37 39 39 39 39 39 39 39 39 38 37 35 32 31 29 28 25 24 23 22 21 20 20 20 21 21 21 21 22 22 22 22 20 19 18 18 17 17 17 16 16 16 16 16 16 16 17 17 18 19 18 16 11 8 8 9 9 10 9 8 7 7 7 7 7 7
3 6 10 10 9 10 11 12 9 6 2 1 4 4 2 4 6 8 10 9 10 12 13 16 24 30 33 34 36 38 39 39 40 40 40 40 40 39 40 39 39 37 34 33 32 31 29 27 25 24 23 22 21 21 22 22 22 22 23 23 23 23 21 18 17 17 17 18 18 18 17 17 17 16 16 15 16 16 17 17 16 13 10 9 8 9 9 10 9 8 7 6 5 6 6 7 7
6 6 9 9 9 9 11 10 7 4 4 2 4 3 1 6 6 2 8 10 11 15 18 17 22 30 34 36 38 39 41 41 41 42 42 43 43 41 40 39 38 37 36 35 33 31 30 28 27 25 24 23 22 22 23 22 23 23 24 24 24 22 20 18 17 17 18 18 19 18 18 17 17 17 16 15 14 14 13 13 10 8 8 8 8 8 8 8 8 7 6 5 5 5 5 6 6
5 7 7 4 5 5 7 8 5 4 4 6 7 6 5 6 5 1 5 9 13 16 17 17 23 31 34 37 40 41 41 41 42 43 44 44 44 42 40 39 38 37 37 35 33 31 30 29 29 27 26 24 23 24 24 24 24 24 25 25 24 22 20 19 19 19 19 19 19 19 18 18 17 17 16 14 12 10 10 10 8 7 7 7 7 6 6 6 6 6 6 5 5 5 6 6 6
5 8 6 6 5 4 3 1 3 4 2 7 10 12 9 6 5 4 6 10 16 16 14 14 20 28 34 38 41 42 42 42 42 42 43 44 44 42 41 40 40 39 38 37 35 33 31 30 30 29 27 25 25 25 26 26 26 26 26 25 23 21 20 20 21 21 19 19 19 19 18 18 17 17 16 14 12 9 9 9 8 7 7 6 6 5 5 6 7 7 6 6 5 6 6 6 6
6 5 5 4 2 4 4 4 3 4 4 6 10 11 9 8 6 6 11 15 17 17 15 14 17 27 36 39 42 44 44 43 42 42 43 43 43 43 43 43 42 41 40 39 38 35 34 32 31 30 29 28 28 28 28 28 28 28 27 25 23 21 20 21 22 20 18 17 18 17 17 18 17 17 16 15 12 10 9 9 8 8 8 6 6 5 5 6 7 7 7 6 6 6 6 6 6
5 5 5 5 1 1 1 1 1 3 6 6 7 9 5 8 8 8 13 14 14 15 18 20 21 28 37 40 43 44 43 43 42 42 43 44 44 45 45 45 44 43 43 41 39 38 36 34 33 32 31 30 30 30 30 30 30 30 28 26 24 22 21 21 20 18 16 16 16 16 17 18 17 17 16 15 13 11 10 9 9 9 8 7 6 6 6 7 7 8 8 7 7 6 6 6 6
5 6 6 5 3 2 3 3 0 2 5 4 4 9 4 6 6 9 13 17 20 22 27 32 29 28 34 40 43 42 41 43 43 44 45 45 46 47 46 46 45 45 44 43 41 39 38 36 34 33 32 32 32 32 32 32 32 31 29 27 25 23 22 21 19 17 16 16 16 16 16 16 16 16 15 14 12 11 10 9 9 9 8 8 8 7 7 8 8 8 8 8 8 8 8 8 7
6 5 6 6 5 5 4 3 3 4 3 2 3 5 5 4 4 9 14 17 22 26 30 31 25 20 26 33 35 37 39 42 43 45 46 47 48 48 47 47 46 45 44 44 43 41 40 38 36 35 35 34 34 34 34 34 34 32 30 28 26 24 23 21 19 17 16 16 16 15 16 16 16 15 14 13 12 11 10 10 9 9 9 9 8 8 8 8 8 9 9 9 9 9 10 9 9
5 4 5 5 7 6 3 4 6 5 2 1 2 3 5 5 5 7 6 8 13 19 24 24 21 17 20 26 32 35 38 41 43 45 47 48 48 48 48 47 46 46 45 44 44 43 42 39 37 37 37 36 36 36 37 36 35 33 32 30 28 26 25 22 20 18 18 17 16 15 16 16 16 16 15 14 13 12 11 10 10 9 9 10 9 9 9 9 9 9 10 10 10 10 11 11 11
2 3 4 5 6 7 4 2 2 3 2 2 3 3 3 2 6 7 3 5 9 12 15 19 20 17 19 26 33 36 38 42 44 46 48 48 48 48 48 48 46 46 45 45 44 43 43 41 39 39 39 38 38 38 38 38 37 35 34 31 29 28 26 24 21 20 19 17 17 16 16 17 17 16 15 14 13 12 11 11 11 10 10 10 10 10 9 9 9 10 10 10 10 11 12 12 12
5 4 7 3 2 3 3 2 1 3 2 4 2 5 4 2 3 6 2 7 12 10 11 15 14 15 21 28 34 37 41 43 45 46 47 47 47 49 50 49 48 46 45 44 44 43 43 42 41 41 41 40 40 40 40 40 39 37 35 33 32 30 27 24 22 20 19 18 18 17 18 18 18 16 15 14 13 12 12 12 12 11 11 11 10 10 9 9 9 9 9 9 9 10 12 12 12
4 4 6 5 3 1 1 3 2 1 2 4 3 3 4 5 4 5 5 10 13 11 12 11 10 15 23 29 33 38 40 42 43 45 45 45 47 49 50 50 49 47 45 44 43 43 44 43 42 42 42 41 41 41 42 41 41 39 37 35 33 31 28 26 24 22 20 19 18 18 18 18 17 16 15 14 14 13 13 13 12 11 11 9 8 7 6 6 6 5 5 6 6 8 10 11 11
2 3 4 2 3 5 3 3 4 4 4 3 2 3 3 6 7 7 10 13 13 12 11 10 12 20 28 31 33 36 39 42 43 44 45 47 48 50 51 51 50 48 46 44 44 44 43 44 44 44 44 43 42 43 44 43 43 41 39 37 35 32 30 27 25 23 20 19 19 18 18 18 17 16 15 14 14 14 14 13 12 11 10 8 7 6 5 4 4 4 5 6 6 7 9 9 9
3 3 4 2 1 2 2 1 3 4 4 4 3 3 5 7 6 9 13 13 13 13 12 11 15 23 32 34 33 35 39 42 43 44 46 47 48 49 50 50 50 48 46 46 46 45 44 44 45 45 45 45 45 45 46 46 45 43 41 38 36 34 31 28 26 23 21 19 19 19 18 17 17 16 15 14 15 15 14 12 11 10 10 9 8 6 5 6 6 7 7 8 9 10 11 11 11
8 6 6 6 4 4 2 4 1 2 3 5 5 4 6 7 6 9 13 11 11 13 13 12 17 26 32 33 33 35 39 43 44 45 46 47 47 47 48 48 48 47 47 47 47 46 45 45 45 46 47 47 46 47 48 48 47 45 43 40 37 34 31 28 26 23 21 19 19 19 18 17 17 17 15 15 15 15 13 11 11 11 10 10 9 8 7 8 9 9 10 10 11 12 13 14 14
Wind_Direction
145 141 151 150 158 166 162 351 42 14 63 85 23 81 85 112 122 113 126 140 146 141 123 129 132 127 119 118 114 83 43 27 167 120 137 152 151 144 137 136 134 132 128 128 129 132 136 136 140 143 144 148 148 144 143 143 145 150 151 147 142 138 137 134 133 131 132 135 137 140 143 147 147 147 150 150 148 143 139 136 134 133 131 126 121 118 113 105 94 81 67 54 44 35 30 30 34
154 149 154 151 156 155 31 4 72 29 58 63 333 72 157 92 109 141 153 155 124 113 116 115 107 96 101 106 97 68 36 27 121 121 125 145 149 142 139 139 137 133 130 131 130 131 132 132 136 141 142 142 140 138 139 141 141 146 144 136 133 132 132 132 132 132 132 135 138 142 147 150 151 152 152 152 148 143 142 140 139 137 134 130 124 117 107 96 84 71 58 47 39 32 28 28 31
160 158 157 153 152 146 48 37 89 86 80 95 322 297 166 116 123 133 129 119 119 120 118 107 91 80 91 92 62 52 64 68 115 124 129 146 149 142 142 142 138 133 132 133 131 131 132 133 136 140 140 137 136 133 132 131 132 134 131 128 130 130 131 132 133 133 133 135 139 144 149 152 153 152 151 150 146 145 145 145 143 140 138 133 122 109 96 85 72 60 51 43 37 31 24 23 24
163 161 159 157 149 153 59 55 119 109 116 148 172 268 195 133 128 102 106 120 126 126 121 105 75 71 91 89 70 74 99 112 124 132 138 150 149 143 143 141 138 134 133 132 131 132 132 135 140 142 141 138 137 134 130 129 129 129 128 128 129 130 131 133 133 134 135 137 141 144 148 151 152 152 153 152 150 150 151 151 147 144 141 131 118 102 91 78 64 51 41 37 34 31 23 16 14
172 167 164 167 148 159 121 89 108 99 150 167 153 220 173 132 128 107 111 121 130 132 126 115 82 91 87 71 73 93 117 133 139 142 142 149 150 144 142 141 138 135 134 132 132 132 133 138 141 142 141 138 136 134 133 131 131 131 131 132 132 132 134 136 137 137 138 140 142 146 150 152 155 156 157 157 157 157 157 157 152 147 138 126 115 102 91 75 56 40 33 29 27 26 18 8 7
188 181 174 179 201 286 137 92 98 93 181 166 149 176 153 143 132 116 110 106 109 124 124 113 115 109 84 62 72 94 126 143 147 146 145 148 151 145 143 142 139 137 135 133 134 134 135 138 139 139 139 137 134 133 134 134 135 135 135 135 135 136 138 140 141 142 144 145 146 150 154 157 160 161 161 162 162 161 162 161 155 147 136 127 117 104 86 66 48 34 28 23 17 13 7 1 2
193 187 180 187 242 313 103 104 132 132 39 149 153 153 149 147 132 121 109 99 96 107 113 113 119 104 85 90 77 73 116 152 150 147 146 148 151 148 145 144 141 139 136 135 134 133 133 136 138 137 135 134 133 134 137 138 139 139 138 137 137 140 142 144 144 146 149 150 152 153 156 160 164 166 166 166 165 166 166 164 157 148 139 131 117 98 70 54 39 25 19 13 5 0 0 358 357
184 179 168 160 12 37 86 97 133 161 70 71 133 141 146 147 136 125 103 106 104 105 114 119 119 98 82 125 90 79 125 150 151 147 148 148 151 150 148 146 144 141 138 137 133 132 133 135 137 135 135 135 136 139 141 141 141 141 139 139 141 143 144 145 145 146 148 150 152 153 156 159 163 165 166 167 168 170 167 164 156 150 143 130 109 80 56 42 28 17 9 3 355 352 354 352 350
179 176 162 129 75 53 68 57 51 128 89 96 111 129 138 144 136 123 104 98 111 115 116 121 115 110 117 102 97 122 138 152 152 148 149 149 151 150 149 148 146 144 141 140 136 135 136 138 138 138 139 140 141 143 144 142 142 143 143 144 146 146 146 147 147 147 148 149 151 153 155 157 160 162 164 168 169 168 164 161 156 152 143 123 93 69 48 29 19 8 358 352 348 348 349 347 342
172 183 184 110 81 70 75 9 48 71 73 107 114 134 140 143 131 121 117 106 120 117 113 128 115 122 125 100 98 130 143 153 154 151 152 151 151 149 149 150 149 146 144 143 140 140 141 142 142 143 145 145 147 146 145 145 145 147 148 149 150 150 150 151 151 151 152 151 153 155 157 159 161 163 165 168 167 165 162 161 159 155 147 127 96 73 19 359 355 351 344 342 346 346 345 341 335
158 191 178 77 78 99 141 85 95 93 87 99 111 142 146 141 125 112 113 110 118 114 120 128 119 123 114 94 104 131 149 155 156 154 154 154 152 151 150 151 151 148 146 145 143 144 145 146 146 149 152 151 151 149 148 148 149 151 151 152 153 154 155 156 157 158 160 159 159 158 160 162 162 164 166 167 167 166 165 166 166 166 164 163 160 296 298 304 319 330 333 336 343 342 340 333 327
171 147 108 84 112 148 162 130 121 109 104 121 142 158 152 143 131 123 121 117 119 118 130 137 138 132 103 82 124 143 155 157 159 156 156 157 154 153 152 153 154 151 149 149 148 149 151 152 151 154 156 155 154 152 151 151 152 153 154 155 156 157 158 160 161 163 166 165 165 165 166 167 167 167 168 171 170 170 173 174 176 182 185 204 241 267 281 294 308 315 321 330 335 334 335 332 329
198 147 104 88 145 136 129 128 135 120 127 175 172 163 155 150 145 140 124 115 126 125 147 152 145 133 94 114 136 153 160 162 162 157 157 158 157 155 154 156 156 155 153 154 154 154 156 156 155 156 158 158 157 155 154 153 154 155 155 157 158 159 160 161 162 163 165 165 168 169 169 170 170 171 172 175 173 175 180 182 185 195 203 226 254 275 290 293 296 301 312 322 326 326 330 334 336
201 195 119 103 106 114 123 128 145 144 176 205 166 159 158 160 156 144 129 121 127 139 146 149 146 128 115 129 148 164 164 165 162 159 160 160 160 158 158 159 158 159 157 158 159 158 159 160 160 160 161 162 161 159 158 156 156 157 156 157 159 160 161 162 161 161 162 163 166 166 167 168 169 170 173 177 178 183 190 195 201 217 235 246 261 277 286 287 291 298 310 315 319 325 329 337 339
226 237 101 110 107 114 150 156 155 159 191 191 160 159 149 145 156 144 134 132 121 146 139 145 147 123 156 158 169 170 166 165 163 162 162 162 164 162 163 162 162 163 160 161 163 164 164 165 165 164 167 166 165 163 161 160 158 158 157 158 159 161 161 162 160 159 160 162 165 167 167 167 169 172 176 182 186 195 206 213 224 245 256 260 267 273 274 281 294 302 309 312 314 322 326 333 337
242 234 75 94 142 154 184 161 144 155 198 172 158 155 118 127 151 134 141 140 131 146 139 151 149 47 177 170 166 166 164 165 164 165 165 164 166 166 167 166 166 166 164 167 168 170 170 170 171 170 171 170 170 168 166 164 160 159 158 160 161 162 164 164 163 163 164 166 170 173 174 174 176 180 184 191 195 205 218 227 239 252 260 265 270 272 274 283 295 301 306 308 310 314 317 324 331
226 207 70 97 169 182 176 168 167 168 167 156 162 158 126 135 149 120 147 140 136 147 147 160 158 345 173 167 162 162 162 166 167 168 167 166 168 169 170 169 170 170 171 174 174 175 175 175 175 176 175 174 175 173 172 169 165 165 164 165 166 167 168 168 169 169 173 175 178 182 182 183 185 190 197 206 213 222 231 240 247 250 255 261 266 272 279 289 295 300 306 304 304 309 311 318 326
187 142 112 165 191 198 179 178 176 153 149 162 170 162 148 151 145 128 131 129 135 140 142 161 164 176 170 165 162 163 164 168 170 171 170 170 171 172 173 173 175 176 178 179 180 180 180 180 179 181 180 179 180 179 178 175 173 174 172 173 172 172 173 174 176 177 181 183 187 190 189 193 197 202 209 217 226 234 241 248 254 258 260 264 269 275 281 288 295 302 305 298 299 304 305 312 319
166 105 115 206 204 201 174 168 165 155 157 162 165 162 159 156 146 141 137 136 140 123 126 150 133 146 163 165 165 167 168 171 174 173 173 173 175 176 176 178 180 181 182 182 183 185 185 185 185 186 185 184 184 183 183 181 182 182 179 180 178 178 178 180 183 184 187 191 195 196 193 200 207 210 216 222 232 240 248 252 256 264 268 272 277 281 283 289 298 308 306 299 301 303 302 307 312
195 133 145 243 210 203 165 167 171 164 156 153 159 162 166 162 152 149 145 145 153 147 152 153 144 152 161 167 169 170 171 175 177 176 177 177 179 181 180 181 183 184 185 185 185 187 188 188 190 190 189 190 188 188 187 186 188 187 185 185 185 184 184 187 188 191 195 198 200 201 199 204 213 218 225 231 238 245 253 257 258 264 268 271 278 282 286 293 305 319 320 310 310 312 310 309 312
190 153 194 234 190 193 179 170 170 162 157 155 155 155 164 167 156 149 145 138 176 196 182 176 167 164 164 167 171 173 175 178 179 180 183 182 183 185 185 184 185 187 186 188 189 189 190 191 193 193 193 194 193 194 191 192 192 191 190 189 190 190 192 193 193 196 200 205 205 205 205 209 220 227 235 241 248 255 257 259 258 262 266 271 277 279 284 292 307 323 329 321 321 324 321 312 308
175 210 220 195 164 184 179 168 165 161 158 153 151 156 164 166 161 158 154 148 196 199 193 187 177 171 169 170 172 174 177 179 181 185 187 187 187 187 188 187 186 188 188 190 191 190 191 192 194 194 195 195 197 198 196 197 196 195 193 193 195 196 198 198 198 201 202 208 208 210 211 215 227 237 246 249 255 260 257 253 254 261 268 276 278 277 277 285 301 317 332 328 324 322 317 311 302
197 255 234 184 181 177 159 161 161 159 156 157 163 165 161 158 167 171 168 167 201 195 191 185 179 174 172 171 172 175 179 182 185 188 190 191 190 189 189 189 190 190 190 192 192 192 192 192 193 194 196 196 198 199 200 201 200 198 197 198 201 203 207 206 206 207 207 210 211 219 222 225 234 242 250 253 255 255 255 253 257 267 275 281 275 277 282 287 298 307 318 316 308 303 302 310 310
203 264 266 202 197 180 157 158 160 161 164 169 165 159 161 162 168 178 183 237 225 191 186 180 175 173 172 173 175 179 183 186 188 188 191 193 193 192 191 191 193 192 193 193 193 193 192 192 192 193 195 196 198 199 201 202 202 201 202 204 206 209 215 216 216 215 214 214 217 225 230 232 233 240 250 253 253 251 252 255 264 275 280 284 278 284 290 290 295 297 299 294 291 289 287 298 303
190 235 265 212 191 172 158 157 160 165 167 167 159 157 170 173 163 173 194 240 178 177 178 175 171 171 174 176 178 181 185 188 190 191 193 197 198 197 196 196 196 196 196 193 193 193 192 192 192 193 194 196 198 200 202 203 204 204 206 208 208 213 220 219 222 222 221 220 222 228 233 236 235 240 246 245 248 249 251 255 268 277 279 281 279 285 291 292 295 295 295 292 287 283 278 280 283
218 253 247 186 160 152 153 154 161 165 162 160 155 156 170 169 155 163 198 179 165 170 171 172 170 172 176 179 182 184 188 189 190 191 193 198 200 202 200 199 200 200 198 195 195 193 192 194 194 194 195 196 199 201 204 205 206 207 208 210 211 216 220 220 223 223 223 224 226 231 237 240 238 240 240 240 244 247 249 254 264 272 275 279 279 282 287 289 292 294 295 293 291 289 288 288 286
301 296 166 146 136 139 150 151 159 160 160 163 155 144 154 156 154 166 192 173 167 165 164 170 171 175 179 182 185 188 191 192 191 192 193 196 198 202 202 202 203 201 199 197 196 194 194 196 196 196 196 198 201 203 206 207 209 209 210 212 214 217 218 220 222 221 223 225 228 232 237 238 235 238 236 236 240 243 246 252 261 268 274 279 282 284 284 286 287 291 292 291 292 292 291 290 290
313 117 88 99 117 125 145 146 154 152 159 167 148 111 137 155 180 200 176 171 172 166 164 171 173 177 181 183 187 191 195 195 195 196 196 196 196 199 202 203 202 200 200 199 197 196 197 198 198 198 198 200 202 205 206 209 212 212 213 214 213 216 218 221 221 221 223 226 230 233 237 235 233 235 234 235 243 250 251 255 261 268 275 276 278 280 281 285 288 291 291 289 290 290 289 285 285
134 126 90 68 93 113 149 143 154 149 155 161 136 94 150 187 228 184 170 170 170 167 165 171 175 178 182 185 189 193 198 199 201 202 202 200 199 201 204 205 203 202 202 200 200 200 200 201 200 200 202 203 204 206 208 211 213 214 216 215 214 215 217 221 221 223 225 228 231 234 236 233 233 235 236 242 250 258 259 261 266 273 279 278 277 278 280 285 288 290 290 289 289 288 289 286 282
126 119 99 107 83 133 177 148 152 145 153 158 140 105 219 219 210 170 169 169 166 165 168 173 177 181 183 187 191 195 200 201 204 206 207 206 206 207 208 207 206 207 206 205 205 204 204 204 204 205 206 207 208 208 210 212 213 215 216 216 215 215 217 221 223 226 228 229 231 233 234 231 234 238 242 251 256 262 264 266 273 279 283 280 279 280 282 285 287 290 289 288 287 288 290 287 283
117 95 81 114 130 185 204 164 151 135 164 167 147 70 211 228 201 171 172 172 168 167 172 177 180 183 186 189 192 197 201 203 208 210 211 212 212 213 212 209 209 212 212 210 209 207 208 207 207 208 209 210 210 210 211 211 213 214 216 216 215 217 220 223 226 229 230 231 232 232 234 234 240 247 254 260 261 263 263 268 275 279 281 277 277 282 285 288 288 290 290 290 292 291 291 287 284
104 121 98 191 160 185 226 200 170 149 176 188 191 356 216 244 188 175 174 175 173 171 176 181 184 186 189 191 195 199 203 206 210 213 216 216 217 216 214 211 210 212 213 213 212 210 209 209 210 211 211 212 211 212 212 212 213 215 217 218 217 219 223 227 229 231 232 233 235 236 238 242 247 253 258 261 264 265 266 273 278 279 283 280 283 289 292 294 293 293 293 294 295 295 293 289 284
296 120 152 183 157 181 215 222 206 171 170 202 222 171 224 257 180 177 176 178 176 175 180 184 188 190 191 194 197 201 203 206 210 215 219 218 218 216 212 209 206 207 209 212 213 211 210 210 211 213 215 214 214 214 213 214 215 216 219 220 220 222 225 231 232 233 235 235 238 241 243 245 246 250 255 258 265 271 271 276 277 280 291 292 295 297 296 296 295 294 293 293 295 296 298 298 290
257 65 135 177 163 177 183 202 214 183 171 202 199 167 219 198 169 174 180 181 179 180 184 188 192 193 195 197 199 203 205 208 212 215 216 216 216 213 210 207 205 204 204 206 210 213 213 211 212 215 216 217 217 216 215 216 217 219 222 223 223 225 228 233 233 235 237 240 245 248 250 251 247 249 257 265 272 274 272 276 281 292 301 301 301 297 295 294 291 291 289 291 294 297 302 303 295
199 172 140 170 170 187 197 194 190 176 183 205 187 193 224 166 162 175 183 183 183 187 188 191 194 196 199 201 203 206 208 212 214 213 212 213 213 212 211 210 209 209 206 205 206 210 213 213 214 216 217 218 217 217 216 217 219 221 223 224 224 226 231 234 235 239 242 249 252 254 259 260 258 259 269 280 282 274 273 281 290 302 304 299 296 292 291 289 286 285 283 284 288 292 296 295 289
183 172 144 162 178 206 210 209 184 167 178 206 199 203 193 165 172 181 184 186 189 193 191 193 196 198 201 203 207 209 211 215 215 212 211 212 213 214 214 214 215 213 211 208 206 208 212 214 216 217 217 216 216 215 215 216 218 220 223 225 226 229 232 234 237 242 247 253 255 257 261 262 265 269 273 275 270 267 273 282 292 298 295 290 291 293 290 284 281 281 279 278 280 282 283 283 282
164 146 139 162 183 219 221 235 208 162 174 210 200 193 184 177 183 185 184 186 192 196 195 198 199 200 203 205 209 211 214 216 215 214 214 214 216 217 217 218 218 218 216 213 211 210 211 215 219 219 217 215 214 214 214 216 218 220 223 226 230 232 234 235 238 243 248 254 257 258 259 261 263 263 263 261 259 266 273 282 290 293 292 291 297 302 292 280 278 281 279 276 275 274 274 276 278
150 148 159 173 193 223 231 248 210 170 181 217 175 166 208 195 188 186 181 185 198 200 197 199 201 203 205 207 211 214 217 218 218 218 217 217 218 219 221 221 221 220 218 215 214 212 212 216 219 219 218 215 214 215 216 219 221 224 227 231 236 238 238 239 243 249 254 258 256 253 256 260 257 253 253 254 259 267 273 282 288 292 295 298 308 312 295 274 274 278 278 276 274 274 274 275 277
141 131 149 183 201 201 245 201 179 183 200 246 163 172 245 234 193 192 189 195 205 203 201 201 201 203 207 210 212 214 217 219 220 221 220 220 220 220 222 223 223 222 219 216 214 213 214 216 217 216 217 216 215 214 216 220 224 227 231 236 242 244 245 245 247 250 252 253 251 250 254 255 250 248 251 256 263 268 275 282 286 292 296 300 309 310 293 273 274 276 278 278 277 280 282 280 282
139 127 144 197 198 177 217 207 165 165 182 179 140 142 314 298 191 215 209 210 213 210 210 209 206 206 210 212 213 214 215 218 220 221 221 221 221 222 222 222 223 223 222 219 215 214 214 215 215 213 213 214 214 214 216 219 223 229 233 236 240 244 246 246 247 247 243 243 244 247 251 249 247 249 254 262 267 270 275 279 284 289 291 296 303 300 286 287 287 284 283 284 287 290 292 289 288
201 179 163 173 186 188 198 158 138 132 50 109 107 54 316 211 190 224 218 217 223 218 215 217 217 215 216 216 217 216 217 218 220 221 221 221 221 221 221 222 223 223 222 219 216 214 215 215 214 213 212 213 214 215 216 217 219 225 229 231 233 235 237 238 239 238 237 240 244 248 247 246 248 253 259 264 267 270 273 276 280 283 286 292 294 287 283 291 294 295 293 293 296 296 297 299 294
223 216 190 178 178 178 142 123 126 129 243 229 123 101 290 239 206 217 210 213 222 218 214 219 221 220 220 219 218 219 220 220 221 222 222 221 220 220 221 221 222 222 220 218 217 217 217 218 217 216 216 216 216 216 217 218 219 222 224 225 226 227 229 232 234 235 239 245 250 251 248 249 252 256 258 260 263 266 269 273 276 279 284 287 282 275 283 289 294 298 295 294 297 297 300 301 298
220 224 192 179 162 153 147 141 140 158 220 222 168 189 265 290 232 215 201 210 219 218 220 221 220 220 220 218 218 220 219 219 220 222 222 220 219 220 220 220 220 220 219 218 218 218 219 220 220 219 220 220 219 218 218 219 220 222 223 224 225 227 230 233 237 240 244 249 250 251 251 252 255 256 257 259 260 261 263 266 271 275 277 272 263 269 278 283 288 289 286 288 292 294 297 298 299
230 221 174 168 151 152 163 157 165 182 158 159 181 183 276 291 253 208 187 209 226 226 228 224 220 220 220 219 220 219 219 219 218 218 219 219 220 221 220 220 219 220 219 218 218 219 220 221 222 223 223 224 223 220 220 220 221 222 224 225 227 229 233 238 243 247 248 248 249 251 252 254 257 259 262 264 263 260 259 260 263 264 255 244 248 259 266 273 277 276 276 279 282 285 288 291 294
237 202 156 163 157 157 166 168 188 175 124 201 224 162 194 264 279 216 175 203 228 230 228 224 219 218 218 220 220 220 221 220 219 218 219 220 222 223 223 221 221 221 219 219 219 220 221 222 223 224 225 226 226 223 222 222 223 224 225 227 228 230 234 237 241 245 247 247 248 251 254 256 259 262 266 268 264 260 257 257 256 245 229 228 239 249 258 263 263 265 267 267 271 275 278 281 284
220 153 114 95 102 122 154 171 175 116 140 213 215 182 202 259 277 197 170 205 226 231 229 224 219 217 217 219 220 221 221 220 220 220 220 222 224 225 224 223 223 222 221 220 221 221 221 222 223 225 227 228 227 225 223 222 223 224 225 227 229 230 232 233 235 238 240 243 247 250 253 256 259 263 268 271 267 261 253 253 252 234 218 222 233 242 247 250 255 258 256 256 265 271 275 276 275
144 115 88 66 55 63 88 114 109 114 201 231 209 193 198 245 258 196 185 208 214 221 230 225 218 217 217 218 219 220 220 220 220 220 221 223 225 225 224 224 224 223 221 221 221 221 222 223 224 226 228 229 228 224 222 221 222 223 224 225 228 229 230 231 234 236 237 241 246 249 252 255 260 264 268 270 268 261 252 252 247 226 216 223 233 237 236 243 251 250 249 253 262 272 277 277 278
127 103 102 108 28 31 42 9 61 146 235 248 216 197 197 235 251 215 216 221 212 212 223 221 211 213 215 215 218 219 218 218 219 218 219 221 221 222 222 223 224 223 222 222 221 221 222 223 225 227 228 228 226 223 221 221 221 221 222 223 225 226 228 231 235 237 239 244 248 251 253 255 259 262 265 267 267 263 256 249 240 224 220 229 237 237 239 245 248 248 250 254 258 266 269 273 279
121 112 107 129 251 6 91 269 111 183 242 251 195 173 196 245 248 230 229 233 226 217 220 222 215 210 211 212 215 217 216 217 217 217 218 219 219 219 220 221 222 222 223 223 222 222 222 223 225 227 227 226 224 222 220 220 220 219 219 220 222 223 226 230 234 237 241 247 250 252 254 257 259 261 262 263 261 261 255 245 236 229 227 235 238 238 243 246 247 249 252 258 262 262 262 267 273
148 148 140 149 165 162 209 235 43 216 252 280 156 157 203 272 261 235 229 233 231 224 224 226 223 214 211 212 213 214 214 214 216 216 217 218 218 220 220 221 222 223 224 223 222 222 222 223 225 227 226 224 222 221 219 219 219 217 217 218 219 221 223 227 230 233 238 244 249 253 257 259 260 262 260 257 257 258 253 240 235 234 233 238 237 238 246 249 251 252 255 261 265 264 265 268 270
177 165 148 159 162 167 202 203 183 207 237 337 103 153 193 223 243 233 230 236 233 231 234 236 235 226 215 213 212 212 212 213 214 216 217 218 219 220 221 221 222 224 224 223 222 222 223 224 226 226 224 221 221 220 219 219 217 216 216 217 218 220 222 225 228 231 235 240 245 250 255 257 258 258 255 253 254 253 244 234 232 233 233 236 237 240 247 251 255 258 260 263 266 268 270 271 272
209 148 129 183 185 164 178 189 180 177 156 109 164 206 217 220 280 284 267 264 241 234 241 243 242 232 211 206 209 210 211 212 213 215 216 218 218 219 220 221 223 223 223 223 223 223 224 226 226 225 222 220 220 219 219 218 217 216 216 216 217 219 220 223 225 228 232 237 242 246 250 252 253 252 249 248 249 246 237 230 229 229 230 235 238 243 248 252 257 260 261 264 266 268 270 272 273
181 148 176 212 177 143 147 210 171 128 170 239 192 220 267 293 296 296 298 273 251 236 237 236 231 219 200 200 206 208 209 212 213 215 216 217 216 217 220 221 223 223 224 224 225 226 226 226 226 224 222 220 219 219 218 218 217 216 217 217 217 217 219 220 222 226 230 235 239 242 245 247 246 245 245 245 246 243 236 229 226 225 228 233 237 243 249 254 258 259 260 262 263 265 268 270 271
135 184 198 177 116 105 119 174 23 71 213 263 199 196 218 177 272 297 273 237 248 244 237 234 218 200 200 205 207 208 209 212 215 216 217 216 215 217 219 221 224 225 226 227 227 228 228 228 227 224 222 220 218 217 217 217 217 217 217 217 217 217 218 219 222 226 230 235 238 239 241 242 242 242 243 244 244 240 233 228 223 222 225 229 234 242 249 253 257 260 261 263 264 266 269 272 273
151 181 174 141 153 212 135 168 176 138 208 265 283 251 227 195 225 272 233 223 236 239 238 235 207 195 206 210 209 208 208 211 213 214 215 215 216 217 218 220 223 225 227 229 229 229 229 229 227 226 224 222 219 218 218 217 218 217 217 217 217 218 218 220 223 226 230 235 237 238 239 240 240 240 240 241 238 232 226 220 216 216 216 217 222 230 238 245 255 264 270 273 274 274 277 280 281
74 117 155 147 169 177 177 167 165 181 200 224 271 290 258 228 218 217 221 224 225 227 231 232 215 208 212 214 211 207 204 208 211 212 214 216 217 218 218 221 224 225 227 228 228 229 229 228 227 226 225 224 223 221 219 218 219 219 219 218 219 220 219 220 222 224 228 234 238 238 238 238 237 238 236 235 231 222 214 211 209 208 202 197 202 211 225 244 260 272 283 287 288 288 291 295 293
136 162 185 189 143 139 181 186 133 152 173 177 202 234 252 247 208 198 219 224 218 215 215 225 225 217 217 217 212 205 203 208 212 213 216 218 218 218 218 221 224 225 225 225 227 228 228 228 228 226 225 224 223 221 220 221 221 221 221 220 221 221 221 221 222 224 228 234 239 238 237 235 234 234 232 228 222 211 206 208 206 201 197 200 209 218 236 258 270 279 287 291 292 292 295 299 299
171 188 190 181 167 134 184 244 229 125 164 174 178 213 256 249 196 198 219 221 219 215 207 219 229 224 221 219 213 208 207 209 212 216 219 219 218 217 218 220 222 223 224 225 227 228 228 228 228 227 226 225 224 223 222 222 222 222 222 222 222 222 222 222 223 225 228 233 239 238 235 233 231 232 229 221 213 206 206 211 207 205 208 215 224 231 245 260 270 279 285 288 289 288 289 292 294